Flag for Germany Past Weather in Weilheim in Oberbayern, Bavaria, Germany — Yesterday and Last 2 Weeks

Now
68 °F

Partly sunny.


Feels Like: 68 °F
Forecast: 62 / 78 °F
Wind: 5 mph from West

Location: Altenstadt Airport

Current Time: Jul 25, 2016 at 7:55:08 PM

Latest Report: Jul 25, 2016 at 7:20 PM


Visibility: N/A

Pressure: 30.15 "Hg (28.24 "Hg at 560m altitude)

Humidity: 78%

Dew Point: 61 °F

Location of Weilheim in OberbayernLocation

Past Weather in Weilheim in Oberbayern — Graph

°F

Weilheim in Oberbayern Temperature Yesterday

Maximum temperature yesterday: 77 °F (at 3:20 PM)
Minimum temperature yesterday: 55 °F (at 5:20 AM)
Average temperature yesterday: 66 °F

High & Low Weather Summary for the Past Weeks

 TemperatureHumidityPressure
High84 °F (Jul 10, 6:20 PM)100% (Jul 12, 2:20 AM)30.36 "Hg (Jul 12, 2:20 AM)
Low46 °F (Jul 13, 11:20 PM)42% (Jul 10, 7:20 PM)29.95 "Hg (Jul 11, 5:20 PM)
Average63 °F78%30.13 "Hg
* Reported Jul 10 6:20 PM — Jul 25 6:20 PM, Weilheim in Oberbayern, Weather by CustomWeather, © 2016

Note: Actual official high and low records may vary slightly from our data, if they occured in-between our weather recording intervals... More about our weather records

Advertising

Weilheim in Oberbayern Weather History for the Previous 24 Hours

Scroll right to see more
 ConditionsComfort  
Time TempWeatherWind HumidityBarometerVisibility
6:20 PM
Mon, Jul 25
68 °FPartly sunny.8 mph83%30.12 "HgN/A
5:20 PM75 °FThundershowers. Scattered clouds.8 mph57%30.12 "HgN/A
4:20 PM73 °FScattered clouds.3 mph69%30.15 "HgN/A
3:20 PM73 °FScattered clouds.5 mph61%30.12 "HgN/A
2:20 PM72 °FScattered clouds.2 mph61%30.15 "HgN/A
1:20 PM68 °FPartly sunny.7 mph83%30.15 "HgN/A
12:20 PM64 °FLight rain. Broken clouds.5 mph94%30.15 "HgN/A
11:20 AM63 °FRain. Mostly cloudy.2 mph94%30.18 "Hg4 mi
10:50 AM61 °FHeavy rain. Fog.3 mph100%30.18 "Hg3 mi
10:20 AM61 °FLight rain. Mostly cloudy.7 mph100%30.18 "Hg4 mi
9:20 AM61 °FHeavy rain. Fog.3 mph94%30.18 "Hg2 mi
8:50 AM61 °FHeavy rain. Fog.1 mph94%30.15 "Hg3 mi
8:20 AM61 °FHeavy rain. Fog.5 mph100%30.15 "Hg1 mi
8:00 AM61 °FHeavy rain. Fog.5 mph100%30.15 "Hg1 mi
7:45 AM63 °FHeavy rain. Fog.3 mph94%30.15 "Hg2 mi
7:20 AM63 °FLight rain. Partly sunny.3 mph94%30.15 "Hg6 mi
6:20 AM61 °FPartly cloudy.5 mph100%30.15 "HgN/A
5:20 AM61 °FPartly cloudy.3 mph94%30.15 "HgN/A
4:20 AM61 °FCool.1 mph100%30.15 "HgN/A
3:20 AM63 °FMild.3 mph94%30.15 "HgN/A
2:20 AM63 °FMild.5 mph94%30.15 "HgN/A
1:20 AM63 °FMild.6 mph94%30.15 "HgN/A
12:20 AM63 °FMild.6 mph100%30.15 "HgN/A
11:20 PM
Sun, Jul 24
64 °FMild.5 mph94%30.15 "HgN/A
10:20 PM66 °FMild.6 mph94%30.15 "HgN/A
9:20 PM68 °FMild.1 mph88%30.15 "HgN/A
8:20 PM72 °FMild.2 mph73%30.12 "HgN/A
7:20 PM73 °FMild.5 mph65%30.12 "HgN/A
Weather by CustomWeather, © 2016

See weather overviewHow to use our weather pages